Vorticity
nan nan nan nan nan nan nan nan nan nan nan nan nan nan nan nan nan nan nan nan nan nan nan nan nan nan nan nan nan nan nan nan
nan 6 6 8 9 9 8 6 7 7 7 6 7 7 6 6 6 5 5 6 6 5 5 6 6 5 3 3 5 9 6 nan
nan 8 6 6 7 8 8 6 6 6 6 6 5 6 8 7 7 7 6 6 5 5 6 8 6 6 8 6 10 7 8 nan
nan 6 6 6 7 7 6 6 6 7 7 7 6 7 7 8 9 10 9 7 6 6 7 6 6 7 8 9 11 7 9 nan
nan 6 6 5 5 5 6 7 7 8 8 6 7 7 7 7 8 8 11 8 7 8 7 7 8 6 5 8 7 6 8 nan
nan 7 7 5 5 8 7 6 7 8 9 7 5 6 7 8 7 8 7 9 8 6 7 8 8 8 6 5 6 6 8 nan
nan 7 6 6 5 7 8 8 8 8 8 8 7 7 6 7 8 8 7 6 7 8 8 7 7 7 7 7 6 7 8 nan
nan 7 6 7 7 6 8 9 10 9 8 8 6 5 7 8 8 7 7 7 6 8 7 8 8 8 7 8 7 7 9 nan
nan 7 8 7 8 10 8 8 9 9 9 12 9 6 6 7 8 9 8 8 7 6 7 7 8 8 8 8 10 8 8 nan
nan 10 9 9 7 9 9 8 7 8 8 11 11 10 9 7 7 7 8 7 7 7 8 7 7 7 8 7 8 10 8 nan
nan 14 11 8 8 7 6 6 9 9 8 7 11 12 9 8 7 8 8 9 9 8 7 8 8 8 8 8 7 8 9 nan
nan 10 9 9 7 7 7 7 7 7 8 9 8 8 9 9 8 8 9 9 8 8 9 9 9 10 11 10 9 7 8 nan
nan 7 9 9 9 7 7 7 8 7 7 8 9 9 10 9 8 10 10 8 8 8 8 7 10 10 9 12 11 13 12 nan
nan 7 8 8 9 9 8 9 9 8 6 6 7 9 9 9 9 9 8 8 9 10 6 9 11 8 6 7 12 12 13 nan
nan 8 8 9 10 9 8 8 7 8 8 7 5 8 8 8 9 9 9 8 8 8 10 11 8 10 11 5 6 8 7 nan
nan 8 7 7 9 10 10 9 8 8 7 7 6 7 8 9 10 9 9 8 9 9 9 9 10 11 14 13 8 6 3 nan
nan 7 7 9 9 9 8 9 9 8 7 8 9 8 8 10 12 13 12 9 8 7 8 9 10 10 8 9 12 10 11 nan
nan 7 5 6 7 8 8 7 7 8 8 9 9 10 8 9 12 12 10 10 10 10 10 9 8 8 9 9 9 10 12 nan
nan 6 7 6 6 5 7 10 11 9 9 8 9 10 9 9 10 9 10 9 10 11 10 10 14 11 6 7 9 10 10 nan
nan nan nan nan nan nan nan nan nan nan nan nan nan nan nan nan nan nan nan nan nan nan nan nan nan nan nan nan nan nan nan nan
CAPE
1022 1441 1554 1304 1322 1451 1427 1774 1655 1632 1592 1522 1493 1373 1176 1104 1143 1231 1100 913 748 839 708 628 512 286 114 13 0 0 0 0
745 982 1299 1362 1385 1337 1570 1631 1488 1453 1395 1332 1261 1144 991 879 881 1034 928 794 671 619 507 537 421 163 62 0 0 0 0 0
658 766 790 943 1162 1369 1411 1370 1269 1241 1213 1150 1012 694 757 680 649 691 738 636 475 373 319 287 156 5 3 0 0 0 0 0
711 701 621 638 1031 900 770 894 791 753 769 707 436 402 423 500 477 525 649 484 304 207 200 126 2 0 0 0 0 0 0 0
899 735 675 732 980 459 375 483 379 367 451 377 358 379 233 415 224 315 281 342 38 36 24 0 0 0 0 0 0 0 0 0
1071 909 851 820 713 559 477 479 361 297 250 266 289 197 21 69 190 162 135 59 0 0 0 0 0 0 0 0 0 0 0 0
1101 812 686 698 917 813 663 625 629 565 320 141 248 159 63 0 122 169 121 8 0 0 0 0 0 0 0 0 0 0 0 0
1465 1099 811 565 636 925 1267 1299 1131 835 597 404 228 293 67 17 97 174 195 68 9 0 0 0 0 0 0 0 0 0 0 0
1550 1192 1104 1087 967 784 934 1025 915 984 1038 918 516 408 382 109 248 234 238 170 34 0 0 0 0 0 0 0 0 0 0 0
1483 1578 1084 1223 1156 885 876 719 819 874 775 687 793 628 756 442 557 521 518 338 165 123 11 0 0 0 0 0 0 0 0 0
0 641 1255 1061 809 728 791 707 622 616 730 751 715 922 837 710 655 769 244 370 390 229 68 26 6 0 0 0 0 0 0 0
0 0 143 582 467 509 361 173 92 66 102 244 343 317 289 201 169 189 37 90 147 45 33 69 3 0 0 0 0 0 0 0
0 0 0 0 0 0 0 0 9 8 19 54 36 58 122 111 75 93 15 22 113 182 143 118 107 0 0 0 0 0 0 0
0 0 0 0 0 0 0 0 0 0 0 0 0 0 0 10 7 12 1 2 43 7 18 0 0 0 0 4 0 0 0 0
0 0 0 0 0 0 0 0 0 0 0 0 0 0 0 0 0 0 0 17 17 78 5 9 1 3 0 48 0 0 0 0
0 0 0 0 0 0 0 0 0 0 0 0 0 0 0 0 0 0 0 3 1 7 61 54 77 49 40 17 0 0 0 0
0 0 0 0 0 0 0 0 0 0 0 0 0 0 0 0 0 0 3 0 0 0 0 0 0 0 2 9 30 5 5 0
0 0 0 0 0 0 0 0 0 0 0 0 0 0 0 0 0 0 0 0 0 0 0 0 1 0 0 0 9 41 6 30
0 0 0 0 0 0 0 0 0 0 0 0 0 0 0 0 0 0 0 0 0 0 0 2 0 7 0 0 0 3 18 8
0 0 0 0 0 0 0 0 0 0 0 0 0 0 0 0 0 0 0 0 0 0 0 1 0 1 0 0 0 0 1 0